Regional Weather Roundup
Issued by NWS

Home | Current Version | Previous Version | Text Only | Print | Product List | Glossary On
Versions: 1 2 3 4 5 6 7 8 9 10 11 12 13 14 15 16 17 18 19 20 21 22 23 24 25 26 27 28 29 30 31 32 33 34 35 36 37 38 39 40 41 42 43 44 45 46 47 48 49 50
000
ASUS44 KMEG 201100
RWRTN
TENNESSEE HOURLY STATE WEATHER ROUNDUP
NATIONAL WEATHER SERVICE MEMPHIS TN
500 AM CST FRI JAN 20 2017

TNZ002-004-019-021-049-052-054-088>092-201200-
WEST TENNESSEE

CITY           SKY/WX    TMP DP  RH WIND       PRES   REMARKS
MEMPHIS INTL   CLOUDY    58  56  93 SW7       29.72S
NWS MEMPHIS      N/A     56 N/A N/A MISG        N/A
JACKSON        MOCLDY    55  54  96 S5        29.71S
DYERSBURG      MOCLDY    55  52  88 SW5       29.70R
UNION CITY     CLOUDY   N/A N/A N/A CALM      29.68S
PARIS          CLOUDY    54  52  94 CALM      29.71R
$$

TNZ008-025-027-028-033-062-065-066-201200-
NORTH MIDDLE TENNESSEE

CITY           SKY/WX    TMP DP  RH WIND       PRES   REMARKS
NASHVILLE      CLOUDY    56  52  86 SW8       29.75R
CLARKSVILLE    CLOUDY    56  53  90 S8        29.71S
SMYRNA         CLOUDY    55  54  96 SW3       29.76R
CROSSVILLE     CLOUDY    54  52  93 CALM      29.77R
$$

TNZ061-075-076-078-094-096-097-201200-
SOUTH MIDDLE TENNESSEE

CITY           SKY/WX    TMP DP  RH WIND       PRES   REMARKS
TULLAHOMA      CLOUDY    57  55  94 SW9       29.77R
WINCHESTER     CLOUDY    57  55  94 VRB5      29.77R
COLUMBIA       CLOUDY   N/A N/A N/A SW7       29.74R
SHELBYVILLE    CLOUDY    57  55  94 CALM      29.76S
$$

TNZ017-018-042-046-047-201200-
NORTHEAST TENNESSEE

CITY           SKY/WX    TMP DP  RH WIND       PRES   REMARKS
TRI CITIES     LGT RAIN  52  51  97 SE5       29.81R
$$

TNZ012-013-036-069-073-074-201200-
CENTRAL EAST TENNESSEE

CITY           SKY/WX    TMP DP  RH WIND       PRES   REMARKS
KNOXVILLE      CLOUDY    56  53  90 NW5       29.77R
OAK RIDGE      CLOUDY    53  51  93 CALM      29.79R
GATLINBURG     CLOUDY    52  52 100 CALM      29.77R
$$

TNZ083-085-099-201200-
SOUTHEAST TENNESSEE

CITY           SKY/WX    TMP DP  RH WIND       PRES   REMARKS
CHATTANOOGA    MOCLDY    55  54  96 SE3       29.78R
$$

SKY/WX REPORTED AS FAIR MEANS FEW OR NO CLOUDS BELOW
12 THOUSAND FEET.





USA.gov is the U.S. government's official web portal to all federal, state and local government web resources and services.